This demonstration page uses our WeatherBlox Daily Observations layout. Learn more.

Left ArrowRight Arrow

39.01783, -85.05884

Hourly Observations for June 25, 2020

Temp ( °F °C ) Dew Point ( °F °C ) Humidity (%) Winds ( mph kmh ) Pressure ( in mb ) Visibility ( mi km ) Precip ( " mm )
12:52 am 00:52 Clear 64 17.8 57 13.9 78 78 Calm 29.92 1013 10 16 0.00 0.00
1:52 am 01:52 Clear 63 17.2 58 14.4 84 84 Calm 29.92 1013 10 16 0.00 0.00
2:52 am 02:52 Clear 60 15.6 57 13.9 90 90 S 6 9 29.92 1013 9 14 0.00 0.00
3:52 am 03:52 Clear 62 16.7 57 13.9 84 84 Calm 29.92 1013 10 16 0.00 0.00
4:52 am 04:52 Clear 59 15 57 13.9 93 93 S 3 6 29.93 1014 10 16 0.00 0.00
5:52 am 05:52 Mostly Clear 60 15.6 57 13.9 90 90 S 3 6 29.95 1014 10 16 0.00 0.00
6:52 am 06:52 Sunny 60 15.6 57 13.9 90 90 S 3 6 29.96 1015 9 14 0.00 0.00
7:52 am 07:52 Mostly Sunny 65 18.3 60 15.6 84 84 Calm 29.98 1015 9 14 0.00 0.00
8:52 am 08:52 Mostly Sunny 71 21.7 58 14.4 63 63 W 8 13 29.99 1016 10 16 0.00 0.00
9:52 am 09:52 Sunny 75 23.9 56 13.3 52 52 W 10 17 30.00 1016 10 16 0.00 0.00
10:52 am 10:52 Mostly Sunny 78 25.6 57 13.9 48 48 W 9 15 30.01 1016 10 16 0.00 0.00
11:52 am 11:52 Partly Cloudy 80 26.7 58 14.4 47 47 W 12 19 30.02 1017 10 16 0.00 0.00
12:52 pm 12:52 Mostly Cloudy 79 26.1 56 13.3 45 45 W 12 19 30.02 1017 10 16 0.00 0.00
1:52 pm 13:52 Partly Cloudy 81 27.2 57 13.9 44 44 VRB 7 11 30.02 1017 10 16 0.00 0.00
2:52 pm 14:52 Partly Cloudy 83 28.3 56 13.3 40 40 W 13 20 30.01 1016 10 16 0.00 0.00
3:52 pm 15:52 Partly Cloudy 82 27.8 55 12.8 40 40 SW 14 22 30.00 1016 10 16 0.00 0.00
4:52 pm 16:52 Partly Cloudy 83 28.3 55 12.8 38 38 SW 7 11 29.99 1016 10 16 0.00 0.00
5:52 pm 17:52 Partly Cloudy 81 27.2 55 12.8 41 41 W 12 19 29.99 1016 10 16 0.00 0.00
6:52 pm 18:52 Mostly Sunny 82 27.8 54 12.2 38 38 W 12 19 29.98 1015 10 16 0.00 0.00
7:52 pm 19:52 Mostly Sunny 80 26.7 56 13.3 44 44 W 8 13 29.99 1016 10 16 0.00 0.00
8:52 pm 20:52 Mostly Sunny 78 25.6 56 13.3 47 47 WSW 3 6 29.99 1016 10 16 0.00 0.00
9:52 pm 21:52 Mostly Clear 76 24.4 55 12.8 48 48 SW 3 6 30.00 1016 10 16 0.00 0.00
10:52 pm 22:52 Mostly Clear 70 21.1 57 13.9 64 64 SSW 6 9 30.01 1016 10 16 0.00 0.00
11:52 pm 23:52 Mostly Clear 71 21.7 58 14.4 63 63 SSW 6 9 30.03 1017 10 16 0.00 0.00

Powered by AerisWeather